Location: Borojevi?i
(45.0486°N, 16.2297°E)
Time: 03:55:17
(UTC+00:00)

IRIDIUM 104 - Pass Details

Date: 08 August 2020
Orbit: 776 x 779 km, 86.4° (Epoch: 19 September)

Event Time Altitude Azimuth Distance (km) Brightness Sun altitude
Rises 19:23:29 0° 184° (S) 3,248 7.2 -11.7°
Reaches altitude 10° 19:25:49 10° 185° (S) 2,325 6.5 -12.1°
Maximum altitude 19:31:02 82° 272° (W) 792 4.4 -12.8°
Drops below altitude 10° 19:36:17 10° 2° (N) 2,342 7.3 -13.5°
Sets 19:38:39 0° 3° (N) 3,274 8.1 -13.8°
